DELTA 1 DEB, 10650

Orbit data source: Space-Track

DELTA 1 DEB, 10650 is space debris in LEO originally from a launch on Thu, 29 Jul 1976 UTC launched from the Air Force Western Test Range (AFWTR). Debris objects in space refer to the collection of defunct objects orbiting the Earth. Examples of debris include non-operational satellites, rocket bodies, and fragments generated from explosions, collisions, or faulty payload assembly.

Loading next visibility...
Identifier
10650, 1976-077L
Orbit
LEO
Country
Flag of USUS
Related business
Manufacturer
Unknown
Mission
Spacecraft
Bus & Motor
Unknown
Mass
Unknown
Launch date (UTC)
1976-07-29 (50 years ago)
Launch vehicle
Unknown
Launch site
Air Force Western Test Range (AFWTR)
Object type
Payload
Rocket body
Debris
Shape & HBR
Unknown shape, 0.1 m
Radar Cross Section
Medium (>0.1 m² and <1 m²)

Expand to show TLE details & history
Last TLE update: 13 hours ago

TLE from 13 hours ago
0 DELTA 1 DEB
1 10650U 76077L   26256.18862922  .00000082  00000-0  19402-2 0  9996
2 10650 102.0895 334.3189 0437017 235.5247 147.5132 11.57492062121307
Epoch: 2026-09-13T04:31Z
TLE epoch observation values (Epoch: 2026-09-13T04:31:37.564Z)
Latitude
25.02555°
Longitude
-91.48742°
Altitude
2,188.247 km
Speed
6.696 km/s
True Right ascension
21h 54m 25s
True Declination
24° 54' 58"
Sunlit
Object was in full shadow at epoch
Visualization orbit readout
Latitude
Unknown
Longitude
Unknown
Altitude
Unknown
Speed
Unknown
Apparent Right ascension
Unknown
Apparent Declination
Unknown
Sunlit
N/A
Visualization observer readout
Local Sidereal Time
10:31:18
Azimuth
Unknown
Elevation
Unknown
Doppler factor
Unknown
Orbital elements
Apogee altitude
2,235.322 km
Perigee altitude
1,514 km
Semi-major axis
8,252.798 km
Eccentricity
0.0437
Inclination
102.0895°
RAAN
334.3189°
Arg. of periapsis
235.5247°
True anomaly
150.08341°
Mean anomaly
147.5132°
Eccentric anomaly
148.80993°
Mean motion
2.89495 °/min
Orbital period
124.35 mins
BSTAR
0.0019402
Loading maneuver chart data...
Computing Atmospheric mass density...
Loading historical data...
Loading historical data...
Loading historical data...
Loading historical data...
Loading historical data...
Loading historical data...
Loading historical data...

Documentation

Showing up to 5 results
|